Kahului, HI

8:38 AM HST on February 11, 2016 (GMT -1000)
Kahului

Weather History for PHOG - January, 2014

Change the Weather History Date:

Friday, January 10, 2014

  Actual Average Record
Temperature  
Mean Temperature 73 °F 72 °F  
Max Temperature 80 °F 81 °F 90 °F (1959)
Min Temperature 65 °F 64 °F 50 °F (1970)
Degree Days  
Heating Degree Days 0 0  
Month to date heating degree days 0 0  
Since 1 July heating degree days 0 0  
Cooling Degree Days 8 7  
Month to date cooling degree days 76 70  
Year to date cooling degree days 76 70  
Growing Degree Days 21 (Base 50)    
Moisture  
Dew Point 66 °F    
Average Humidity 76    
Maximum Humidity 90    
Minimum Humidity 62    
Precipitation  
Precipitation 0.01 in 0.09 in 4.70 in (1980)
Month to date precipitation 1.07 1.00  
Year to date precipitation 1.07 1.00  
Snow  
Snow 0.00 in - - ()
Month to date snowfall 0.0  
Since 1 July snowfall 0.0  
Snow Depth 0.00 in    
Sea Level Pressure  
Sea Level Pressure 29.97 in    
Wind  
Wind Speed 7 mph (NE)    
Max Wind Speed 20 mph    
Max Gust Speed 23 mph    
Visibility 10 miles    
Events      
T = Trace of Precipitation, MM = Missing Value Source: NWS Daily Summary

Daily Weather History Graph

Daily Weather History Graph

Search for Another Location

Airport or City:

Trip Planner

Search our weather history database for the weather conditions in past years. The results will help you decide how hot, cold, wet, or windy it might be!

Date:

Astronomy

Jan. 10, 2014 Rise Set
Actual Time 7:04 AM HST 6:02 PM HST
Civil Twilight 6:40 AM HST 6:26 PM HST
Nautical Twilight 6:13 AM HST 6:53 PM HST
Astronomical Twilight 5:46 AM HST 7:20 PM HST
Moon 2:04 PM HST (1/10) 2:33 AM HST (1/10)
Length of Visible Light 11h 45m
Length of Day
10h 57m
Waxing Gibbous, 76% of the Moon is Illuminated
Jan 10
Waxing Gibbous
Jan 15
Full
Jan 23
Last Quarter
Jan 30
New
Feb 6
First Quarter

Hourly Weather History & Observations

Time (HST) Temp. Heat Index Dew Point Humidity Pressure Visibility Wind Dir Wind Speed Gust Speed Precip Events Conditions
12:54 AM 71.1 °F - 64.9 °F 81% 30.01 in 10.0 mi East 5.8 mph - 0.00 in   Overcast
1:54 AM 70.0 °F - 64.9 °F 84% 29.99 in 10.0 mi Calm Calm - 0.00 in   Scattered Clouds
2:19 AM 71.6 °F - 64.4 °F 78% 29.97 in 10.0 mi NNW 3.5 mph - N/A   Mostly Cloudy
2:38 AM 71.6 °F - 64.4 °F 78% 29.97 in 10.0 mi North 3.5 mph - N/A   Scattered Clouds
2:54 AM 71.1 °F - 64.9 °F 81% 29.99 in 10.0 mi North 3.5 mph - N/A   Mostly Cloudy
3:09 AM 71.6 °F - 66.2 °F 83% 29.96 in 10.0 mi Calm Calm - N/A   Mostly Cloudy
3:19 AM 71.6 °F - 66.2 °F 83% 29.96 in 10.0 mi North 3.5 mph - N/A   Scattered Clouds
3:54 AM 71.1 °F - 66.0 °F 84% 29.98 in 10.0 mi Calm Calm - 0.01 in   Partly Cloudy
4:54 AM 69.1 °F - 64.9 °F 87% 29.98 in 10.0 mi ENE 4.6 mph - N/A   Clear
5:22 AM 69.8 °F - 64.4 °F 83% 29.98 in 10.0 mi NE 6.9 mph - N/A   Mostly Cloudy
5:54 AM 69.1 °F - 64.9 °F 87% 29.99 in 10.0 mi NNE 3.5 mph - N/A   Scattered Clouds
6:54 AM 69.1 °F - 64.0 °F 84% 30.00 in 10.0 mi Calm Calm - N/A   Partly Cloudy
7:54 AM 70.0 °F - 64.0 °F 81% 30.01 in 10.0 mi East 4.6 mph - N/A   Scattered Clouds
8:54 AM 75.0 °F - 69.1 °F 82% 30.03 in 10.0 mi Calm Calm - 0.00 in   Scattered Clouds
9:54 AM 78.1 °F - 69.1 °F 74% 30.03 in 10.0 mi North 5.8 mph - N/A   Scattered Clouds
10:54 AM 79.0 °F - 69.1 °F 72% 30.01 in 10.0 mi North 9.2 mph - N/A   Scattered Clouds
11:54 AM 79.0 °F - 68.0 °F 69% 29.98 in 10.0 mi NNE 11.5 mph - N/A   Scattered Clouds
12:27 PM 79.0 °F - 68.0 °F 69% 29.98 in 10.0 mi NNE 11.5 mph - N/A   Scattered Clouds
12:54 PM 79.0 °F - 66.9 °F 66% 29.95 in 10.0 mi North 11.5 mph - N/A   Scattered Clouds
1:54 PM 80.1 °F 82.7 °F 68.0 °F 67% 29.92 in 10.0 mi North 11.5 mph - N/A   Partly Cloudy
2:54 PM 80.1 °F 82.3 °F 66.9 °F 64% 29.90 in 10.0 mi NNE 12.7 mph - N/A   Partly Cloudy
3:54 PM 79.0 °F - 68.0 °F 69% 29.90 in 10.0 mi NNE 11.5 mph - N/A   Partly Cloudy
4:54 PM 78.1 °F - 66.9 °F 68% 29.91 in 10.0 mi NNE 19.6 mph - N/A   Scattered Clouds
5:54 PM 75.0 °F - 66.9 °F 76% 29.91 in 10.0 mi NE 12.7 mph 19.6 mph N/A   Partly Cloudy
6:54 PM 73.9 °F - 66.9 °F 79% 29.93 in 10.0 mi NE 13.8 mph - N/A   Clear
7:54 PM 72.0 °F - 64.0 °F 76% 29.94 in 10.0 mi ENE 6.9 mph - N/A   Partly Cloudy
8:54 PM 68.0 °F - 63.0 °F 84% 29.95 in 10.0 mi SSE 4.6 mph - N/A   Partly Cloudy
9:54 PM 66.9 °F - 63.0 °F 87% 29.96 in 10.0 mi South 6.9 mph - N/A   Partly Cloudy
10:54 PM 68.0 °F - 63.0 °F 84% 29.96 in 10.0 mi SE 8.1 mph - N/A   Clear
11:54 PM 64.9 °F - 61.0 °F 87% 29.95 in 10.0 mi South 3.5 mph - N/A   Clear